| time (UTC) | temp F | wind direction | speed MPH | gust MPH | rain 1hr in | rain 24hr in | rain mn in | humidity % | barometer mb |
| 20260509220938 | 61 | 220 | 0.0 | 1.0 | 0.00 | 0.01 | 0.00 | 87 | 1018.2 |
| 20260509220432 | 61 | 186 | 0.0 | 0.0 | 0.00 | 0.01 | 0.00 | 87 | 1018.1 |
| 20260509215932 | 61 | 182 | 0.0 | 0.0 | 0.00 | 0.01 | 0.01 | 87 | 1018.1 |
| 20260509215428 | 61 | 182 | 0.0 | 0.0 | 0.00 | 0.01 | 0.01 | 86 | 1018.0 |
| 20260509214929 | 62 | 182 | 0.0 | 0.0 | 0.00 | 0.01 | 0.01 | 86 | 1018.1 |
| 20260509214429 | 62 | 182 | 0.0 | 0.0 | 0.00 | 0.01 | 0.01 | 86 | 1018.0 |
| 20260509213427 | 62 | 182 | 0.0 | 0.0 | 0.00 | 0.01 | 0.01 | 87 | 1017.9 |
| 20260509212924 | 62 | 182 | 0.0 | 0.0 | 0.00 | 0.01 | 0.01 | 87 | 1017.9 |
| 20260509212424 | 62 | 182 | 0.0 | 0.0 | 0.00 | 0.01 | 0.01 | 86 | 1017.9 |
| 20260509211924 | 62 | 182 | 0.0 | 2.0 | 0.00 | 0.01 | 0.01 | 86 | 1017.7 |
| 20260509211425 | 62 | 181 | 0.0 | 2.0 | 0.00 | 0.01 | 0.01 | 86 | 1017.9 |
| 20260509210424 | 62 | 272 | 0.0 | 0.0 | 0.00 | 0.01 | 0.01 | 86 | 1018.0 |
| 20260509205924 | 62 | 272 | 0.0 | 0.0 | 0.00 | 0.01 | 0.01 | 85 | 1018.2 |
| 20260509204922 | 62 | 278 | 0.0 | 2.0 | 0.00 | 0.01 | 0.01 | 85 | 1018.1 |
| 20260509204422 | 62 | 278 | 0.0 | 2.0 | 0.00 | 0.01 | 0.01 | 85 | 1018.0 |
| 20260509203420 | 62 | 279 | 0.0 | 0.0 | 0.00 | 0.01 | 0.01 | 85 | 1018.1 |
| 20260509202920 | 62 | 280 | 0.0 | 2.0 | 0.00 | 0.01 | 0.01 | 85 | 1018.2 |
| 20260509201919 | 62 | 273 | 0.0 | 0.0 | 0.00 | 0.01 | 0.01 | 84 | 1018.3 |
| 20260509201419 | 63 | 271 | 1.0 | 4.0 | 0.00 | 0.01 | 0.01 | 84 | 1018.5 |
| 20260509200917 | 63 | 274 | 1.0 | 4.0 | 0.00 | 0.01 | 0.01 | 83 | 1018.4 |
| 20260509200416 | 63 | 278 | 1.0 | 4.0 | 0.00 | 0.01 | 0.01 | 82 | 1018.4 |
| 20260509195417 | 64 | 274 | 0.0 | 0.0 | 0.00 | 0.01 | 0.01 | 81 | 1018.4 |
| 20260509194916 | 64 | 275 | 0.0 | 0.0 | 0.00 | 0.01 | 0.01 | 81 | 1018.3 |
| 20260509193913 | 65 | 276 | 0.0 | 2.0 | 0.00 | 0.01 | 0.01 | 80 | 1018.3 |
| 20260509193410 | 65 | 280 | 0.0 | 3.0 | 0.00 | 0.01 | 0.01 | 80 | 1018.2 |
| 20260509192908 | 65 | 280 | 0.0 | 3.0 | 0.00 | 0.01 | 0.01 | 80 | 1018.2 |
| 20260509192409 | 65 | 274 | 0.0 | 0.0 | 0.00 | 0.01 | 0.01 | 80 | 1018.1 |
| 20260509191902 | 65 | 274 | 0.0 | 2.0 | 0.00 | 0.01 | 0.01 | 80 | 1018.0 |
| 20260509191358 | 66 | 275 | 0.0 | 2.0 | 0.00 | 0.01 | 0.01 | 80 | 1017.9 |
| 20260509190850 | 66 | 278 | 0.0 | 0.0 | 0.00 | 0.01 | 0.01 | 79 | 1017.9 |
| 20260509190344 | 66 | 278 | 0.0 | 0.0 | 0.00 | 0.01 | 0.01 | 79 | 1017.8 |
| 20260509185838 | 66 | 271 | 0.0 | 4.0 | 0.00 | 0.01 | 0.01 | 80 | 1017.8 |
| 20260509185334 | 66 | 257 | 0.0 | 4.0 | 0.00 | 0.01 | 0.01 | 80 | 1017.7 |
| 20260509184322 | 67 | 229 | 0.0 | 1.0 | 0.00 | 0.01 | 0.01 | 80 | 1017.6 |
| 20260509183814 | 67 | 101 | 0.0 | 0.0 | 0.00 | 0.01 | 0.01 | 79 | 1017.4 |
| 20260509183314 | 67 | 93 | 0.0 | 2.0 | 0.00 | 0.01 | 0.01 | 78 | 1017.4 |
| 20260509182812 | 68 | 92 | 0.0 | 2.0 | 0.00 | 0.01 | 0.01 | 76 | 1017.2 |
| 20260509182312 | 68 | 91 | 0.0 | 0.0 | 0.00 | 0.01 | 0.01 | 76 | 1017.1 |
| 20260509181812 | 69 | 91 | 0.0 | 0.0 | 0.00 | 0.01 | 0.01 | 76 | 1017.0 |
| 20260509181313 | 69 | 91 | 0.0 | 0.0 | 0.00 | 0.01 | 0.01 | 75 | 1016.8 |
| 20260509180825 | 69 | 91 | 0.0 | 0.0 | 0.00 | 0.01 | 0.01 | 74 | 1017.1 |
| 20260509180326 | 69 | 91 | 0.0 | 0.0 | 0.00 | 0.01 | 0.01 | 73 | 1017.1 |
| 20260509175810 | 70 | 91 | 0.0 | 0.0 | 0.00 | 0.01 | 0.01 | 73 | 1016.9 |
| 20260509174808 | 71 | 95 | 0.0 | 0.0 | 0.00 | 0.01 | 0.01 | 71 | 1017.0 |
| 20260509174307 | 72 | 98 | 0.0 | 0.0 | 0.00 | 0.01 | 0.01 | 69 | 1017.1 |
| 20260509173808 | 72 | 98 | 0.0 | 0.0 | 0.00 | 0.01 | 0.01 | 68 | 1017.0 |
| 20260509173311 | 72 | 103 | 0.0 | 0.0 | 0.00 | 0.01 | 0.01 | 67 | 1017.1 |
| 20260509172306 | 73 | 103 | 0.0 | 0.0 | 0.00 | 0.01 | 0.01 | 63 | 1017.2 |
| 20260509171804 | 73 | 103 | 0.0 | 0.0 | 0.00 | 0.01 | 0.01 | 63 | 1017.3 |
| 20260509170304 | 74 | 108 | 0.0 | 0.0 | 0.00 | 0.01 | 0.01 | 64 | 1017.3 |
| 20260509165804 | 74 | 108 | 0.0 | 0.0 | 0.00 | 0.02 | 0.01 | 64 | 1017.3 |
| 20260509165306 | 74 | 108 | 0.0 | 0.0 | 0.00 | 0.02 | 0.01 | 64 | 1017.2 |
| 20260509164806 | 74 | 108 | 0.0 | 0.0 | 0.00 | 0.02 | 0.01 | 61 | 1017.2 |
| 20260509164304 | 75 | 108 | 0.0 | 0.0 | 0.00 | 0.03 | 0.01 | 62 | 1017.1 |
| 20260509163804 | 75 | 108 | 0.0 | 0.0 | 0.00 | 0.04 | 0.01 | 61 | 1017.2 |
| 20260509163302 | 75 | 108 | 0.0 | 0.0 | 0.00 | 0.05 | 0.01 | 60 | 1017.2 |
| 20260509162800 | 76 | 108 | 0.0 | 0.0 | 0.00 | 0.05 | 0.01 | 57 | 1017.2 |
| 20260509162300 | 76 | 108 | 0.0 | 0.0 | 0.00 | 0.06 | 0.01 | 56 | 1017.2 |
| 20260509161802 | 76 | 108 | 0.0 | 0.0 | 0.00 | 0.06 | 0.01 | 55 | 1017.2 |
| 20260509161301 | 76 | 108 | 0.0 | 0.0 | 0.00 | 0.07 | 0.01 | 55 | 1017.2 |
| 20260509160802 | 76 | 108 | 0.0 | 4.0 | 0.00 | 0.08 | 0.01 | 52 | 1017.3 |
| 20260509160302 | 76 | 107 | 0.0 | 4.0 | 0.00 | 0.09 | 0.01 | 50 | 1017.3 |
| 20260509155800 | 76 | 126 | 0.0 | 2.0 | 0.00 | 0.09 | 0.01 | 52 | 1017.3 |
| 20260509154757 | 76 | 129 | 0.0 | 2.0 | 0.00 | 0.12 | 0.01 | 50 | 1017.3 |
| 20260509154257 | 76 | 129 | 0.0 | 2.0 | 0.00 | 0.13 | 0.01 | 49 | 1017.2 |
| 20260509153756 | 76 | 162 | 0.0 | 1.0 | 0.00 | 0.13 | 0.01 | 49 | 1017.4 |
| 20260509153256 | 77 | 162 | 0.0 | 1.0 | 0.00 | 0.14 | 0.01 | 48 | 1017.4 |
| 20260509152756 | 77 | 164 | 0.0 | 0.0 | 0.00 | 0.17 | 0.01 | 48 | 1017.4 |
| 20260509152257 | 77 | 167 | 0.0 | 3.0 | 0.00 | 0.19 | 0.01 | 47 | 1017.5 |
| 20260509151757 | 77 | 167 | 0.0 | 3.0 | 0.00 | 0.22 | 0.01 | 47 | 1017.5 |
| 20260509151255 | 77 | 96 | 0.0 | 0.0 | 0.00 | 0.25 | 0.01 | 48 | 1017.8 |
| 20260509150758 | 77 | 91 | 0.0 | 1.0 | 0.00 | 0.28 | 0.01 | 49 | 1017.9 |
| 20260509145755 | 77 | 91 | 0.0 | 3.0 | 0.00 | 0.33 | 0.01 | 49 | 1018.1 |
| 20260509145254 | 77 | 88 | 0.0 | 4.0 | 0.00 | 0.35 | 0.01 | 48 | 1018.1 |
| 20260509144250 | 77 | 136 | 1.0 | 6.0 | 0.00 | 0.40 | 0.01 | 45 | 1018.2 |
| 20260509143750 | 77 | 218 | 1.0 | 6.0 | 0.00 | 0.43 | 0.01 | 46 | 1018.2 |
| 20260509143250 | 77 | 183 | 1.0 | 6.0 | 0.00 | 0.45 | 0.01 | 45 | 1018.3 |
| 20260509142750 | 77 | 244 | 1.0 | 5.0 | 0.00 | 0.46 | 0.01 | 44 | 1018.4 |
| 20260509142249 | 77 | 176 | 1.0 | 5.0 | 0.00 | 0.48 | 0.01 | 44 | 1018.4 |
| 20260509141747 | 77 | 217 | 1.0 | 7.0 | 0.00 | 0.50 | 0.01 | 44 | 1018.4 |
| 20260509141246 | 77 | 289 | 1.0 | 7.0 | 0.00 | 0.51 | 0.01 | 44 | 1018.4 |
| 20260509140746 | 77 | 280 | 2.0 | 8.0 | 0.00 | 0.52 | 0.01 | 44 | 1018.4 |
| 20260509140244 | 77 | 274 | 3.0 | 8.0 | 0.00 | 0.52 | 0.01 | 46 | 1018.5 |
| 20260509135741 | 77 | 283 | 3.0 | 10.0 | 0.00 | 0.52 | 0.01 | 47 | 1018.5 |
| 20260509135242 | 77 | 283 | 3.0 | 10.0 | 0.00 | 0.52 | 0.01 | 48 | 1018.5 |
| 20260509134745 | 77 | 278 | 2.0 | 10.0 | 0.00 | 0.52 | 0.01 | 50 | 1018.7 |
| 20260509134237 | 77 | 146 | 1.0 | 7.0 | 0.00 | 0.52 | 0.01 | 52 | 1018.8 |
| 20260509133729 | 77 | 278 | 0.0 | 2.0 | 0.00 | 0.52 | 0.01 | 53 | 1018.9 |
| 20260509132717 | 77 | 356 | 1.0 | 5.0 | 0.00 | 0.52 | 0.01 | 52 | 1018.9 |
| 20260509132211 | 77 | 328 | 1.0 | 5.0 | 0.00 | 0.52 | 0.01 | 52 | 1019.0 |
| 20260509131705 | 77 | 314 | 1.0 | 7.0 | 0.00 | 0.52 | 0.01 | 53 | 1018.9 |
| 20260509131159 | 77 | 352 | 1.0 | 7.0 | 0.00 | 0.52 | 0.01 | 53 | 1019.0 |
| 20260509130657 | 77 | 200 | 0.0 | 3.0 | 0.00 | 0.52 | 0.01 | 52 | 1018.9 |
| 20260509130201 | 77 | 174 | 0.0 | 5.0 | 0.00 | 0.52 | 0.01 | 52 | 1019.0 |
| 20260509125654 | 77 | 195 | 0.0 | 5.0 | 0.00 | 0.52 | 0.01 | 52 | 1019.0 |
| 20260509125153 | 77 | 206 | 0.0 | 3.0 | 0.00 | 0.52 | 0.01 | 51 | 1018.9 |
| 20260509124653 | 77 | 260 | 0.0 | 0.0 | 0.00 | 0.52 | 0.01 | 52 | 1019.0 |
| 20260509123647 | 76 | 257 | 1.0 | 3.0 | 0.00 | 0.52 | 0.01 | 53 | 1019.0 |
| 20260509123146 | 76 | 253 | 1.0 | 4.0 | 0.01 | 0.52 | 0.01 | 51 | 1019.1 |
| 20260509122645 | 76 | 193 | 0.0 | 4.0 | 0.01 | 0.52 | 0.01 | 51 | 1019.1 |
| 20260509122146 | 76 | 244 | 0.0 | 3.0 | 0.01 | 0.52 | 0.01 | 51 | 1019.1 |
| 20260509121644 | 76 | 226 | 0.0 | 2.0 | 0.01 | 0.52 | 0.01 | 52 | 1019.2 |
| 20260509121145 | 76 | 205 | 0.0 | 4.0 | 0.01 | 0.52 | 0.01 | 53 | 1019.2 |
| 20260509120642 | 76 | 266 | 0.0 | 4.0 | 0.01 | 0.52 | 0.01 | 53 | 1019.3 |
| 20260509115641 | 75 | 96 | 0.0 | 1.0 | 0.01 | 0.52 | 0.01 | 53 | 1019.4 |
| 20260509115137 | 75 | 95 | 0.0 | 4.0 | 0.01 | 0.52 | 0.01 | 52 | 1019.6 |
| 20260509114636 | 74 | 94 | 1.0 | 4.0 | 0.01 | 0.52 | 0.01 | 53 | 1019.6 |
| 20260509114134 | 74 | 105 | 1.0 | 4.0 | 0.01 | 0.52 | 0.01 | 51 | 1019.6 |
| 20260509113633 | 74 | 113 | 0.0 | 3.0 | 0.01 | 0.52 | 0.01 | 55 | 1019.7 |
| 20260509113134 | 74 | 103 | 0.0 | 0.0 | 0.00 | 0.51 | 0.00 | 52 | 1019.6 |
| 20260509112633 | 74 | 26 | 0.0 | 0.0 | 0.00 | 0.51 | 0.00 | 53 | 1019.7 |
| 20260509111623 | 72 | 127 | 0.0 | 3.0 | 0.00 | 0.51 | 0.00 | 60 | 1019.8 |
| 20260509111124 | 71 | 127 | 0.0 | 3.0 | 0.00 | 0.51 | 0.00 | 60 | 1019.8 |
| 20260509110623 | 71 | 134 | 0.0 | 3.0 | 0.00 | 0.51 | 0.00 | 67 | 1019.8 |
| 20260509110119 | 71 | 134 | 0.0 | 3.0 | 0.00 | 0.51 | 0.00 | 66 | 1019.8 |
| 20260509105115 | 70 | 110 | 0.0 | 2.0 | 0.00 | 0.51 | 0.00 | 72 | 1019.8 |
| 20260509104615 | 69 | 117 | 0.0 | 4.0 | 0.00 | 0.51 | 0.00 | 73 | 1019.8 |
| 20260509104112 | 69 | 117 | 0.0 | 4.0 | 0.00 | 0.51 | 0.00 | 74 | 1019.9 |
| 20260509103611 | 68 | 108 | 0.0 | 3.0 | 0.00 | 0.51 | 0.00 | 76 | 1019.9 |
| 20260509103112 | 68 | 111 | 0.0 | 3.0 | 0.00 | 0.51 | 0.00 | 80 | 1020.0 |
| 20260509102610 | 67 | 114 | 0.0 | 3.0 | 0.00 | 0.51 | 0.00 | 85 | 1020.0 |
| 20260509102108 | 66 | 115 | 0.0 | 3.0 | 0.00 | 0.51 | 0.00 | 87 | 1020.0 |
| 20260509101607 | 65 | 124 | 0.0 | 3.0 | 0.00 | 0.51 | 0.00 | 89 | 1020.0 |
| 20260509101107 | 65 | 148 | 0.0 | 3.0 | 0.00 | 0.51 | 0.00 | 92 | 1020.3 |
| 20260509100105 | 63 | 96 | 0.0 | 2.0 | 0.00 | 0.51 | 0.00 | 94 | 1020.4 |
| 20260509095606 | 63 | 96 | 0.0 | 3.0 | 0.00 | 0.51 | 0.00 | 94 | 1020.4 |
| 20260509095107 | 62 | 88 | 0.0 | 4.0 | 0.00 | 0.51 | 0.00 | 94 | 1020.3 |
| 20260509094603 | 62 | 88 | 0.0 | 4.0 | 0.00 | 0.51 | 0.00 | 95 | 1020.3 |
| 20260509094103 | 62 | 110 | 0.0 | 5.0 | 0.00 | 0.51 | 0.00 | 96 | 1020.5 |
| 20260509093558 | 61 | 128 | 0.0 | 5.0 | 0.00 | 0.51 | 0.00 | 96 | 1020.5 |
| 20260509093055 | 61 | 108 | 0.0 | 0.0 | 0.00 | 0.51 | 0.00 | 96 | 1020.5 |
| 20260509092546 | 60 | 108 | 0.0 | 3.0 | 0.00 | 0.51 | 0.00 | 96 | 1020.7 |
| 20260509092040 | 60 | 109 | 0.0 | 3.0 | 0.00 | 0.51 | 0.00 | 96 | 1020.7 |
| 20260509091533 | 60 | 111 | 0.0 | 2.0 | 0.00 | 0.51 | 0.00 | 96 | 1020.8 |
| 20260509091029 | 60 | 111 | 0.0 | 2.0 | 0.00 | 0.51 | 0.00 | 96 | 1020.8 |
| 20260509090523 | 59 | 96 | 0.0 | 2.0 | 0.00 | 0.51 | 0.00 | 97 | 1020.9 |
| 20260509085511 | 58 | 96 | 0.0 | 0.0 | 0.00 | 0.51 | 0.00 | 96 | 1021.0 |
| 20260509085016 | 58 | 96 | 0.0 | 0.0 | 0.00 | 0.51 | 0.00 | 96 | 1021.0 |
| 20260509083952 | 58 | 96 | 0.0 | 2.0 | 0.00 | 0.51 | 0.00 | 96 | 1020.8 |
| 20260509083450 | 58 | 96 | 0.0 | 0.0 | 0.00 | 0.51 | 0.00 | 96 | 1020.9 |
| 20260509082951 | 58 | 96 | 0.0 | 2.0 | 0.00 | 0.51 | 0.00 | 96 | 1020.8 |
| 20260509081947 | 58 | 96 | 0.0 | 5.0 | 0.00 | 0.51 | 0.00 | 96 | 1020.7 |
| 20260509081447 | 58 | 124 | 0.0 | 5.0 | 0.00 | 0.51 | 0.00 | 96 | 1020.9 |
| 20260509080950 | 58 | 97 | 0.0 | 2.0 | 0.00 | 0.51 | 0.00 | 96 | 1020.9 |
| 20260509080445 | 57 | 97 | 0.0 | 1.0 | 0.00 | 0.51 | 0.00 | 96 | 1021.0 |
| 20260509074444 | 57 | 96 | 1.0 | 4.0 | 0.00 | 0.51 | 0.00 | 96 | 1021.0 |
| 20260509073940 | 57 | 90 | 0.0 | 3.0 | 0.00 | 0.51 | 0.00 | 96 | 1021.0 |
| 20260509073443 | 57 | 105 | 0.0 | 2.0 | 0.00 | 0.51 | 0.00 | 96 | 1021.1 |
| 20260509072940 | 57 | 101 | 0.0 | 2.0 | 0.00 | 0.51 | 0.00 | 96 | 1021.1 |
| 20260509072438 | 57 | 103 | 0.0 | 3.0 | 0.00 | 0.51 | 0.00 | 96 | 1020.9 |
| 20260509071935 | 57 | 106 | 0.0 | 3.0 | 0.00 | 0.51 | 0.00 | 96 | 1021.0 |
| 20260509071435 | 57 | 105 | 0.0 | 3.0 | 0.00 | 0.51 | 0.00 | 96 | 1021.0 |
| 20260509070935 | 56 | 105 | 1.0 | 4.0 | 0.00 | 0.51 | 0.00 | 96 | 1021.0 |
| 20260509070435 | 56 | 110 | 2.0 | 4.0 | 0.00 | 0.51 | 0.00 | 96 | 1021.0 |
| 20260509065933 | 56 | 89 | 2.0 | 4.0 | 0.00 | 0.51 | 0.00 | 96 | 1021.1 |
| 20260509065436 | 56 | 103 | 1.0 | 4.0 | 0.00 | 0.51 | 0.00 | 96 | 1021.2 |
| 20260509064933 | 56 | 88 | 0.0 | 4.0 | 0.00 | 0.51 | 0.00 | 96 | 1021.1 |
| 20260509063433 | 56 | 118 | 0.0 | 0.0 | 0.00 | 0.51 | 0.00 | 96 | 1021.2 |
| 20260509062933 | 56 | 118 | 0.0 | 0.0 | 0.00 | 0.51 | 0.00 | 96 | 1021.3 |
| 20260509061433 | 56 | 146 | 0.0 | 1.0 | 0.00 | 0.51 | 0.00 | 96 | 1021.2 |
| 20260509060435 | 55 | 147 | 0.0 | 1.0 | 0.00 | 0.51 | 0.00 | 96 | 1021.3 |
| 20260509055931 | 55 | 147 | 0.0 | 1.0 | 0.00 | 0.51 | 0.00 | 95 | 1021.2 |
| 20260509055429 | 0 | 0.0 | 0.0 | 0.00 | 0.51 | 0.00 | 1021.2 | ||
| 20260509054928 | 0 | 0.0 | 0.0 | 0.00 | 0.51 | 0.00 | 1021.1 | ||
| 20260509053927 | 0 | 0.0 | 0.0 | 0.00 | 0.51 | 0.00 | 1021.0 | ||
| 20260509053426 | 0 | 0.0 | 0.0 | 0.00 | 0.51 | 0.00 | 1021.0 | ||
| 20260509052925 | 0 | 0.0 | 0.0 | 0.00 | 0.51 | 0.00 | 1021.1 | ||
| 20260509052413 | 0 | 0.0 | 0.0 | 0.00 | 0.51 | 0.00 | 1021.1 | ||
| 20260509051828 | 0 | 0.0 | 0.0 | 0.00 | 0.51 | 0.00 | 1021.0 | ||
| 20260509051325 | 0 | 0.0 | 0.0 | 0.00 | 0.51 | 0.00 | 1020.9 | ||
| 20260509050731 | 0 | 0.0 | 0.0 | 0.00 | 0.51 | 0.00 | 1020.9 | ||
| 20260509050211 | 0 | 0.0 | 0.0 | 0.00 | 0.51 | 0.00 | 1020.9 | ||
| 20260509045628 | 0 | 0.0 | 0.0 | 0.00 | 0.51 | 0.00 | 1020.9 | ||
| 20260509045127 | 0 | 0.0 | 0.0 | 0.00 | 0.51 | 0.00 | 1020.9 | ||
| 20260509044031 | 0 | 0.0 | 0.0 | 0.00 | 0.51 | 0.00 | 1020.6 | ||
| 20260509043522 | 0 | 0.0 | 0.0 | 0.00 | 0.51 | 0.00 | 1020.6 | ||
| 20260509042925 | 0 | 0.0 | 0.0 | 0.00 | 0.51 | 0.00 | 1020.6 | ||
| 20260509041833 | 0 | 0.0 | 0.0 | 0.00 | 0.51 | 0.00 | 1020.5 | ||
| 20260509041329 | 0 | 0.0 | 0.0 | 0.00 | 0.51 | 0.00 | 1020.5 | ||
| 20260509040830 | 0 | 0.0 | 0.0 | 0.00 | 0.51 | 0.00 | 1020.5 | ||
| 20260509040327 | 0 | 0.0 | 0.0 | 0.00 | 0.51 | 0.00 | 1020.6 | ||
| 20260509035734 | 0 | 0.0 | 0.0 | 0.00 | 0.51 | 0.00 | 1020.2 | ||
| 20260509034724 | 0 | 0.0 | 0.0 | 0.00 | 0.51 | 0.00 | 1020.2 | ||
| 20260509034130 | 0 | 0.0 | 0.0 | 0.00 | 0.51 | 0.00 | 1020.3 | ||
| 20260509033626 | 0 | 0.0 | 0.0 | 0.00 | 0.51 | 0.00 | 1020.0 | ||
| 20260509033036 | 0 | 0.0 | 0.0 | 0.00 | 0.51 | 0.00 | 1020.2 | ||
| 20260509032531 | 0 | 0.0 | 0.0 | 0.00 | 0.51 | 0.00 | 1020.2 | ||
| 20260509032025 | 0 | 0.0 | 0.0 | 0.00 | 0.51 | 0.00 | 1020.0 | ||
| 20260509030927 | 0 | 0.0 | 0.0 | 0.00 | 0.51 | 0.00 | 1020.0 | ||
| 20260509030427 | 0 | 0.0 | 0.0 | 0.00 | 0.51 | 0.00 | 1020.0 | ||
| 20260509025925 | 0 | 0.0 | 0.0 | 0.00 | 0.51 | 0.00 | 1020.0 | ||
| 20260509025423 | 0 | 0.0 | 0.0 | 0.00 | 0.51 | 0.00 | 1020.0 | ||
| 20260509024922 | 0 | 0.0 | 0.0 | 0.00 | 0.51 | 0.00 | 1020.0 | ||
| 20260509024333 | 0 | 0.0 | 0.0 | 0.00 | 0.51 | 0.00 | 1019.9 | ||
| 20260509023827 | 0 | 0.0 | 0.0 | 0.00 | 0.51 | 0.00 | 1019.9 | ||
| 20260509023317 | 0 | 0.0 | 0.0 | 0.00 | 0.51 | 0.00 | 1020.0 | ||
| 20260509022723 | 0 | 0.0 | 0.0 | 0.00 | 0.51 | 0.00 | 1019.9 | ||
| 20260509022129 | 0 | 0.0 | 0.0 | 0.00 | 0.51 | 0.00 | 1019.8 | ||
| 20260509021027 | 0 | 0.0 | 0.0 | 0.00 | 0.51 | 0.00 | 1020.0 | ||
| 20260509020526 | 0 | 0.0 | 0.0 | 0.00 | 0.51 | 0.00 | 1019.8 | ||
| 20260509015934 | 0 | 0.0 | 0.0 | 0.00 | 0.51 | 0.00 | 1020.0 | ||
| 20260509015432 | 0 | 0.0 | 0.0 | 0.00 | 0.51 | 0.00 | 1019.8 | ||
| 20260509014837 | 0 | 0.0 | 0.0 | 0.00 | 0.51 | 0.00 | 1019.8 | ||
| 20260509013725 | 0 | 0.0 | 0.0 | 0.00 | 0.51 | 0.00 | 1019.7 | ||
| 20260509013222 | 0 | 0.0 | 0.0 | 0.00 | 0.51 | 0.00 | 1019.7 | ||
| 20260509012636 | 0 | 0.0 | 0.0 | 0.00 | 0.51 | 0.00 | 1019.5 | ||
| 20260509012134 | 0 | 0.0 | 0.0 | 0.00 | 0.51 | 0.00 | 1019.5 | ||
| 20260509011630 | 0 | 0.0 | 0.0 | 0.00 | 0.51 | 0.00 | 1019.6 | ||
| 20260509011127 | 0 | 0.0 | 0.0 | 0.00 | 0.51 | 0.00 | 1019.4 | ||
| 20260509010627 | 0 | 0.0 | 0.0 | 0.00 | 0.51 | 0.00 | 1019.3 | ||
| 20260509010029 | 0 | 0.0 | 0.0 | 0.00 | 0.51 | 0.00 | 1019.5 | ||
| 20260509005020 | 0 | 0.0 | 0.0 | 0.00 | 0.51 | 0.00 | 1019.5 | ||
| 20260509003837 | 0 | 0.0 | 0.0 | 0.00 | 0.51 | 0.00 | 1019.3 | ||
| 20260509003334 | 0 | 0.0 | 0.0 | 0.00 | 0.51 | 0.00 | 1019.3 | ||
| 20260509002830 | 0 | 0.0 | 0.0 | 0.00 | 0.51 | 0.00 | 1019.3 | ||
| 20260509002328 | 0 | 0.0 | 0.0 | 0.00 | 0.51 | 0.00 | 1019.4 | ||
| 20260509001826 | 0 | 0.0 | 0.0 | 0.00 | 0.51 | 0.00 | 1019.3 | ||
| 20260509001321 | 0 | 0.0 | 0.0 | 0.00 | 0.51 | 0.00 | 1019.3 | ||
| 20260509000729 | 0 | 0.0 | 0.0 | 0.00 | 0.51 | 0.00 | 1019.3 | ||
| 20260509000226 | 0 | 0.0 | 0.0 | 0.00 | 0.51 | 0.00 | 1019.4 | ||
| 20260508235126 | 0 | 0.0 | 0.0 | 0.00 | 0.51 | 0.00 | 1019.3 | ||
| 20260508234535 | 0 | 0.0 | 0.0 | 0.00 | 0.51 | 0.00 | 1019.4 | ||
| 20260508234029 | 0 | 0.0 | 0.0 | 0.00 | 0.51 | 0.00 | 1019.5 | ||
| 20260508233526 | 0 | 0.0 | 0.0 | 0.00 | 0.51 | 0.00 | 1019.5 | ||
| 20260508232934 | 0 | 0.0 | 0.0 | 0.00 | 0.51 | 0.00 | 1019.5 | ||
| 20260508231329 | 0 | 0.0 | 0.0 | 0.00 | 0.51 | 0.00 | 1019.5 | ||
| 20260508230818 | 0 | 0.0 | 0.0 | 0.00 | 0.51 | 0.00 | 1019.4 | ||
| 20260508230224 | 0 | 0.0 | 0.0 | 0.00 | 0.51 | 0.00 | 1019.4 | ||
| 20260508225636 | 0 | 0.0 | 0.0 | 0.00 | 0.51 | 0.00 | 1019.5 | ||
| 20260508225132 | 0 | 0.0 | 0.0 | 0.00 | 0.51 | 0.00 | 1019.6 | ||
| 20260508224628 | 0 | 0.0 | 0.0 | 0.00 | 0.51 | 0.00 | 1019.4 | ||
| 20260508224126 | 0 | 0.0 | 0.0 | 0.00 | 0.51 | 0.00 | 1019.5 | ||
| 20260508223625 | 0 | 0.0 | 0.0 | 0.00 | 0.51 | 0.00 | 1019.4 | ||
| 20260508223034 | 0 | 0.0 | 0.0 | 0.00 | 0.51 | 0.00 | 1019.5 | ||
| 20260508222530 | 0 | 0.0 | 0.0 | 0.00 | 0.51 | 0.00 | 1019.5 | ||
| 20260508221435 | 0 | 0.0 | 0.0 | 0.00 | 0.51 | 0.00 | 1019.5 |